Regional Weather Roundup
Issued by NWS Goodland, KS

Home | Current Version | Previous Version | Graphics & Text | Print | Product List | Glossary On
Versions: 1 2 3 4 5 6 7 8 9 10 11 12 13 14 15 16 17 18 19 20 21 22 23 24 25 26 27 28 29 30 31 32 33 34 35 36 37 38 39 40 41 42 43 44 45 46 47 48 49 50
126
ASUS43 KGLD 250608
RWRGLD

GOODLAND FORECAST AREA HOURLY WEATHER ROUNDUP
NATIONAL WEATHER SERVICE GOODLAND KS
1200 AM MDT TUE JUL 25 2017

...OFFICIAL OBSERVATIONS...

CITY           SKY/WX    TMP DP  RH WIND       PRES   REMARKS
GOODLAND KS    CLEAR     74  59  59 S13       30.04R
HILL CITY KS   PTCLDY    78  57  48 S7        30.01R
IMPERIAL NEB   CLOUDY    81  56  42 S14       29.98S
MCCOOK NEB     CLOUDY    84  54  35 S20G28    29.96R
AKRON CO       PTCLDY    77  58  51 S17       30.06R
BURLINGTON CO  CLEAR     73  62  68 S14       30.08R
LIMON CO       CLEAR     69  59  70 SE9       30.13R
$$

...UNOFFICIAL OBSERVATIONS...

CITY           SKY/WX    TMP DP  RH WIND       PRES   REMARKS
LENORA KS        N/A     75  32  20 MISG        N/A
NORTON KS      CLEAR     79  48  34 S9G16     29.99S
SHARON SPRINGS   N/A     72  61  68 S12         N/A
TRIBUNE KS     CLEAR     79  64  61 S12       30.08R
TRENTON NEB      N/A     81  32  17 SW12        N/A
KIT CARSON CO    N/A     74  61  64 MISG        N/A
YUMA CO        FAIR      73  54  49 S13       30.04S
$$




USA.gov is the U.S. government's official web portal to all federal, state and local government web resources and services.